Campo, CA

3:12 PM PDT on October 13, 2019 (GMT -0700)
Campo

Weather History for KCZZ - August, 2019

Change the Weather History Date:

Monday, August 12, 2019

  Actual Average Record
Temperature  
Mean Temperature 70 °F 74 °F  
Max Temperature 93 °F 95 °F 106 °F (1962)
Min Temperature 47 °F 54 °F 35 °F (1950)
Degree Days  
Heating Degree Days 0 0  
Month to date heating degree days 0 0  
Since 1 June heating degree days 42 63  
Since 1 July heating degree days 6 7  
Cooling Degree Days 5 9  
Month to date cooling degree days 125 108  
Year to date cooling degree days 453 480  
Since 1 June cooling degree days 451 450  
Growing Degree Days 20 (Base 50)    
Moisture  
Dew Point 42 °F    
Average Humidity 41    
Maximum Humidity 71    
Minimum Humidity 11    
Precipitation  
Precipitation 0.00 in 0.02 in 0.01 in (1983)
Month to date precipitation 0.00 0.27  
Year to date precipitation 12.82 10.74  
Sea Level Pressure  
Sea Level Pressure 29.90 in    
Wind  
Wind Speed 7 mph (SE)    
Max Wind Speed 16 mph    
Max Gust Speed 19 mph    
T = Trace of Precipitation, MM = Missing Value Source: NWS Daily Summary

Daily Weather History Graph

Daily Weather History Graph

Search for Another Location

Airport or City:

Astronomy

Aug. 12, 2019 Rise Set
Actual Time 6:07 AM PDT 7:33 PM PDT
Civil Twilight 5:41 AM PDT 8:00 PM PDT
Nautical Twilight 5:09 AM PDT 8:31 PM PDT
Astronomical Twilight 4:37 AM PDT 9:03 PM PDT
Moon 6:00 PM PDT (8/12) 3:28 AM PDT (8/12)
Length of Visible Light 14h 18m
Length of Day
13h 26m
Waxing Gibbous, 93% of the Moon is Illuminated
Aug 12
Waxing Gibbous
Aug 15
Full
Aug 23
Last Quarter
Aug 30
New
Sep 5
First Quarter

Hourly Weather History & Observations

Time (PDT) Temp. Heat Index Dew Point Humidity Pressure Visibility Wind Dir Wind Speed Gust Speed Precip Events Conditions
12:52 AM 57.0 °F - 46.0 °F 67% 29.90 in - ENE 5.8 mph - N/A   Unknown
1:52 AM 54.0 °F - 44.1 °F 69% 29.90 in - NE 5.8 mph - N/A   Unknown
2:52 AM 53.1 °F - 44.1 °F 71% 29.89 in - NE 5.8 mph - N/A   Unknown
3:52 AM 52.0 °F - 43.0 °F 71% 29.91 in - ENE 5.8 mph - N/A   Unknown
4:52 AM 50.0 °F - 39.0 °F 66% 29.91 in - NNE 4.6 mph - N/A   Unknown
5:52 AM 52.0 °F - 39.0 °F 61% 29.92 in - NE 4.6 mph - N/A   Unknown
6:52 AM 54.0 °F - 37.9 °F 55% 29.93 in - ENE 5.8 mph - N/A   Unknown
7:52 AM 64.9 °F - 39.9 °F 40% 29.93 in - Calm Calm - N/A   Unknown
8:52 AM 77.0 °F - 37.9 °F 24% 29.91 in - Calm Calm - N/A   Unknown
9:52 AM 84.0 °F - 30.9 °F 15% 29.91 in - SSE 3.5 mph - N/A   Unknown
10:52 AM 87.1 °F - 33.1 °F 15% 29.91 in - SSW 9.2 mph - N/A   Unknown
11:52 AM 90.0 °F - 37.0 °F 15% 29.91 in - SW 10.4 mph - N/A   Unknown
12:52 PM 91.0 °F - 37.0 °F 15% 29.89 in - SSW 10.4 mph 18.4 mph N/A   Unknown
1:52 PM 91.9 °F - 35.1 °F 13% 29.88 in - SW 10.4 mph - N/A   Unknown
2:52 PM 91.9 °F - 30.9 °F 11% 29.87 in - SW 12.7 mph - N/A   Unknown
3:52 PM 91.0 °F - 35.1 °F 14% 29.86 in - SW 15.0 mph - N/A   Unknown
4:52 PM 89.1 °F - 46.0 °F 22% 29.86 in - SSW 16.1 mph - N/A   Unknown
5:52 PM 86.0 °F - 52.0 °F 31% 29.86 in - SW 15.0 mph - N/A   Unknown
6:52 PM 80.1 °F 80.0 °F 54.0 °F 40% 29.87 in - SW 10.4 mph - N/A   Unknown
7:52 PM 73.0 °F - 54.0 °F 51% 29.88 in - SSW 6.9 mph - N/A   Unknown
8:52 PM 66.0 °F - 51.1 °F 59% 29.89 in - North 4.6 mph - N/A   Unknown
9:52 PM 64.9 °F - 51.1 °F 61% 29.90 in - NNE 3.5 mph - N/A   Unknown
10:52 PM 63.0 °F - 50.0 °F 63% 29.91 in - NE 4.6 mph - N/A   Unknown
11:52 PM 61.0 °F - 48.0 °F 62% 29.90 in - ENE 5.8 mph - N/A   Unknown